Location: Hokitika
(42.7170°S, 170.9670°E)
Time: 23:06:59
(UTC+13:00)

IGS 5A - Pass Details

Date: 24 January 2019
Orbit: 583 x 589 km, 97.6° (Epoch: 27 September)

Event Time Altitude Azimuth Distance (km) Brightness Sun altitude
Rises 23:40:27 0° 160° (SSE) 2,853 7.5 -21.4°
Reaches altitude 10° 23:42:46 10° 152° (SSE) 1,944 6.5 -21.7°
Enters shadow 23:46:04 36° 105° (ESE) 957 4.3 -22.0°
